Martinsburg, WV

4:49 AM EDT on April 27, 2017 (GMT -0400)
Eastern W Va Regional-Shepherd

Weather History for KMRB - March, 2013

Change the Weather History Date:

Tuesday, March 5, 2013

  Actual Average Record
Temperature  
Mean Temperature 38 °F 38 °F  
Max Temperature 49 °F 49 °F 80 °F (1976)
Min Temperature 27 °F 28 °F 11 °F (1943)
Degree Days  
Heating Degree Days 27 27  
Month to date heating degree days 147 137  
Since 1 July heating degree days 3782 4093  
Cooling Degree Days 0 0  
Month to date cooling degree days 0 0  
Year to date cooling degree days 0 0  
Moisture  
Dew Point 17 °F    
Average Humidity 42    
Maximum Humidity 63    
Minimum Humidity 21    
Precipitation  
Precipitation T in 0.09 in 1.68 in (1965)
Month to date precipitation T 0.47  
Year to date precipitation 4.82 5.25  
Sea Level Pressure  
Sea Level Pressure 29.96 in    
Wind  
Wind Speed 4 mph (East)    
Max Wind Speed 15 mph    
Max Gust Speed 22 mph    
Visibility 9 miles    
Events Snow    
T = Trace of Precipitation, MM = Missing Value Source: NWS Daily Summary

Daily Weather History Graph

Daily Weather History Graph

Search for Another Location

Airport or City:

Trip Planner

Search our weather history database for the weather conditions in past years. The results will help you decide how hot, cold, wet, or windy it might be!

Date:

Astronomy

Mar. 05, 2013 Rise Set
Actual Time 6:38 AM EST 6:08 PM EST
Civil Twilight 6:11 AM EST 6:35 PM EST
Nautical Twilight 5:40 AM EST 7:06 PM EST
Astronomical Twilight 5:09 AM EST 7:37 PM EST
Moon 1:47 AM EST (3/5) 11:47 AM EST (3/5)
Length of Visible Light 12h 24m
Length of Day
11h 30m
Last Quarter, 41% of the Moon is Illuminated
Mar 5
Last Quarter
Mar 11
New
Mar 19
First Quarter
Mar 27
Full
Apr 3
Last Quarter

Hourly Weather History & Observations

Time (EST) Temp. Windchill Dew Point Humidity Pressure Visibility Wind Dir Wind Speed Gust Speed Precip Events Conditions
12:53 AM 30.0 °F - 15.1 °F 54% 30.06 in 10.0 mi Calm Calm - N/A   Clear
2:53 AM 30.0 °F - 15.1 °F 54% 30.06 in 10.0 mi Calm Calm - N/A   Clear
3:53 AM 34.0 °F 29.8 °F 15.1 °F 46% 30.06 in 10.0 mi SW 4.6 mph - N/A   Clear
4:53 AM 32.0 °F - 15.1 °F 50% 30.06 in 10.0 mi Calm Calm - N/A   Clear
5:53 AM 28.9 °F 23.9 °F 17.1 °F 61% 30.07 in 10.0 mi ENE 4.6 mph - N/A   Clear
6:53 AM 28.9 °F - 18.0 °F 64% 30.08 in 10.0 mi Calm Calm - N/A   Mostly Cloudy
8:53 AM 35.1 °F 31.0 °F 18.0 °F 50% 30.08 in 10.0 mi North 4.6 mph - N/A   Clear
9:53 AM 37.9 °F - 18.0 °F 45% 30.07 in 10.0 mi Calm Calm - N/A   Clear
10:53 AM 39.9 °F - 18.0 °F 41% 30.03 in 10.0 mi Calm Calm - N/A   Clear
11:53 AM 43.0 °F - 17.1 °F 35% 30.03 in 10.0 mi Calm Calm - N/A   Clear
12:53 PM 45.0 °F 43.5 °F 17.1 °F 33% 30.00 in 10.0 mi Variable 3.5 mph - N/A   Clear
1:53 PM 46.0 °F 43.1 °F 14.0 °F 28% 29.97 in 10.0 mi ENE 5.8 mph - N/A   Clear
2:53 PM 48.0 °F - 12.0 °F 24% 29.92 in 10.0 mi Variable 4.6 mph - N/A   Scattered Clouds
3:53 PM 46.9 °F - 10.9 °F 23% 29.92 in 10.0 mi ENE 5.8 mph - N/A   Overcast
4:53 PM 46.0 °F 42.5 °F 9.0 °F 22% 29.91 in 10.0 mi East 6.9 mph - N/A   Overcast
5:53 PM 45.0 °F 40.1 °F 16.0 °F 31% 29.91 in 10.0 mi East 9.2 mph - N/A   Overcast
6:53 PM 44.1 °F 40.1 °F 16.0 °F 32% 29.89 in 10.0 mi East 6.9 mph - N/A   Overcast
7:53 PM 43.0 °F 38.8 °F 16.0 °F 34% 29.89 in 10.0 mi East 6.9 mph - N/A   Overcast
8:53 PM 43.0 °F 37.7 °F 19.0 °F 38% 29.86 in 10.0 mi East 9.2 mph - N/A   Overcast
9:53 PM 41.0 °F 35.8 °F 18.0 °F 40% 29.85 in 10.0 mi ESE 8.1 mph - N/A   Overcast
10:53 PM 41.0 °F 39.0 °F 18.0 °F 40% 29.83 in 10.0 mi Variable 3.5 mph - N/A   Overcast
11:24 PM 37.4 °F 30.8 °F 26.6 °F 65% 29.82 in 2.5 mi SE 9.2 mph 20.7 mph 0.00 in Snow Light Snow
11:36 PM 35.6 °F 28.0 °F 28.4 °F 75% 29.82 in 1.8 mi ESE 10.4 mph 20.7 mph 0.00 in Snow Light Snow
11:53 PM 34.0 °F 27.2 °F 28.9 °F 82% 29.82 in 1.2 mi ESE 8.1 mph - 0.00 in Snow Light Snow